This is the latest recevied weather packets stored in our database for station/object N0LTM. If no packets are shown the sender has not sent any weather packets the latest 10 day(s).
| Time | Temp. | Humidity | Pressure | Rain* | Wind** | Luminosity | Snow |
|---|---|---|---|---|---|---|---|
| 1778007960 | 14.44° C | 33% | 1009.8 hPa | 0 mm | - | - | - |
| 1778007656 | 14.44° C | 28% | 1009.7 hPa | 0 mm | - | - | - |
| 1778006455 | 14.44° C | 29% | 1009.6 hPa | 0 mm | - | - | - |
| 1778004652 | 15° C | 29% | 1009.5 hPa | 0 mm | - | - | - |
| 1778004055 | 15.56° C | 27% | 1009.5 hPa | 0 mm | - | - | - |
| 1778003157 | 15° C | 31% | 1009.2 hPa | 0 mm | - | - | - |
| 1778001354 | 14.44° C | 30% | 1009.2 hPa | 0 mm | - | - | - |
| 1777998660 | 13.33° C | 37% | 1009.3 hPa | 0 mm | - | - | - |
| 1777998055 | 12.78° C | 36% | 1009.3 hPa | 0 mm | - | - | - |
| 1777996256 | 11.67° C | 35% | 1009.3 hPa | 0 mm | - | - | - |
| 1777995069 | 11.67° C | 39% | 1008.9 hPa | 0 mm | - | - | - |
| 1777990558 | 10.56° C | 48% | 1009.1 hPa | 0 mm | - | - | - |
| 1777986960 | 8.89° C | 42% | 1009.5 hPa | 0 mm | - | - | - |
| 1777986062 | 8.89° C | 48% | 1009.4 hPa | 0 mm | - | - | - |
| 1777982155 | 8.33° C | 50% | 1008.8 hPa | 0 mm | - | - | - |
| 1777980352 | 8.33° C | 49% | 1008.3 hPa | 0 mm | - | - | - |
| 1777979458 | 8.89° C | 46% | 1007.8 hPa | 0 mm | - | - | - |
| 1777978865 | 8.89° C | 46% | 1007.2 hPa | 0 mm | - | - | - |
| 1777978255 | 8.89° C | 46% | 1007.5 hPa | 0 mm | - | - | - |
| 1777977653 | 8.89° C | 47% | 1007.8 hPa | 0 mm | - | - | - |
| 1777976752 | 8.89° C | 48% | 1008.2 hPa | 0 mm | - | - | - |
| 1777974959 | 8.89° C | 47% | 1006.2 hPa | 0 mm | - | - | - |
| 1777971353 | 10° C | 47% | 1005.9 hPa | 0 mm | - | - | - |
| 1777969552 | 10.56° C | 44% | 1005.3 hPa | 0 mm | - | - | - |
| 1777968965 | 11.11° C | 44% | 1005.2 hPa | 0 mm | - | - | - |
* Rain latest hour (hover to see other rain measurements)
** Current wind speed in m/s (hover to see current wind gust speed)